GFSSGP_700_spd_000.txt.gz
Wind_Speed
6 6 7 8 7 6 7 5 5 5 10 13 12 13 15 14 14 10 7 7 6 7 8 8 7 7 6 6 6 6 5 5 5 6 6 8 7 8 9 11 11 11 10 10 10 10 8 8 8
8 8 9 10 7 8 6 3 2 5 10 13 13 14 14 16 15 14 12 12 9 8 8 10 11 10 9 8 8 7 6 5 5 5 7 7 8 9 11 12 13 12 11 10 11 10 10 10 10
8 9 8 7 7 6 3 4 6 8 11 14 14 13 15 16 14 13 13 11 10 10 12 12 13 13 12 11 11 9 8 7 7 9 8 9 9 10 12 13 14 14 13 12 12 12 12 12 12
7 8 9 11 11 9 7 7 9 8 9 11 12 14 14 13 13 12 12 11 10 10 10 12 13 14 14 13 13 12 11 10 9 9 9 9 11 12 13 15 15 15 15 15 15 15 15 15 15
7 9 11 10 10 10 10 10 9 9 10 12 14 15 14 11 11 12 12 12 11 10 11 12 13 14 15 16 15 14 13 13 12 11 12 13 14 15 16 16 16 16 16 16 17 17 17 17 17
8 8 10 13 10 10 10 11 9 9 11 11 15 17 14 12 10 11 12 13 14 13 12 12 12 13 14 15 16 16 15 15 14 14 14 14 15 15 15 15 17 17 18 18 19 19 19 20 19
9 11 15 16 15 12 8 11 11 13 12 12 17 18 12 7 13 13 13 12 12 12 11 12 13 14 14 14 15 15 15 16 16 16 16 16 14 13 14 15 15 17 18 19 20 21 21 21 22
11 14 18 16 14 14 14 12 13 15 16 18 19 14 19 17 15 16 16 16 15 13 12 12 13 14 15 16 17 17 16 17 18 18 18 17 16 15 15 15 16 17 18 20 22 22 23 23 24
14 18 20 19 18 17 17 18 18 23 21 21 21 20 19 19 19 19 19 18 16 16 16 15 15 15 16 17 18 19 18 20 20 19 20 19 18 17 17 17 18 19 20 20 22 24 26 27 27
18 23 22 17 19 23 23 24 22 26 24 18 20 21 24 23 23 22 21 19 18 17 18 19 19 18 18 18 18 20 20 22 21 22 22 21 20 19 18 18 19 19 19 20 21 23 24 26 27
27 28 22 25 22 25 28 26 26 28 26 15 24 18 18 20 21 22 22 21 20 20 22 21 22 22 21 20 20 21 22 23 23 24 24 23 23 22 21 20 19 19 19 20 20 21 22 24 24
30 31 28 28 27 28 28 29 30 33 24 19 22 24 24 24 25 24 22 22 21 22 23 25 25 26 25 24 23 23 24 24 24 25 25 25 24 24 23 22 21 20 20 20 19 20 21 23 25
34 33 33 32 34 34 33 31 34 36 24 25 26 27 28 27 29 27 26 22 21 21 22 23 26 26 27 27 25 25 25 26 26 27 28 27 27 27 26 24 23 22 21 21 20 21 21 21 23
35 35 36 37 37 37 37 35 39 34 29 29 32 30 29 32 32 30 28 24 25 24 23 24 26 27 29 29 28 27 26 27 29 30 30 30 30 30 28 27 26 24 24 23 23 22 22 22 23
34 35 37 40 39 42 38 37 44 37 35 32 33 31 33 34 34 33 30 30 28 29 29 26 27 29 32 32 31 31 30 30 32 32 32 32 32 32 31 29 27 26 26 27 25 25 24 23 24
40 42 45 42 41 43 43 48 39 39 40 39 36 37 36 35 35 36 35 35 34 35 33 33 30 31 33 34 34 34 33 34 34 34 35 34 35 34 33 31 29 29 29 28 27 27 25 25 24
39 43 46 43 35 42 44 49 44 40 45 45 43 42 41 41 40 39 38 39 40 39 38 36 36 34 34 37 38 39 38 38 38 38 38 37 36 36 34 32 32 32 31 29 30 29 27 26 25
43 43 41 42 38 46 51 57 51 43 44 49 48 45 44 43 40 36 35 34 37 40 40 39 39 40 37 39 41 39 39 40 37 40 41 39 38 37 35 34 33 32 31 31 32 30 28 27 26
39 42 47 46 42 48 51 56 53 48 44 44 43 42 38 34 32 32 32 29 30 31 35 38 38 38 40 41 41 39 38 39 39 40 40 40 39 38 36 35 34 32 32 34 33 31 29 27 26
37 42 47 51 42 45 52 60 51 45 44 37 34 32 31 29 17 17 15 18 22 30 35 39 39 39 42 43 39 38 38 40 39 38 39 41 40 39 37 35 33 33 33 33 32 31 29 26 24
43 42 49 50 44 42 48 54 31 27 38 34 20 18 12 9 25 18 18 13 17 20 24 31 38 43 44 41 39 38 39 42 42 41 40 40 41 39 36 35 34 33 33 32 31 29 27 25 25
36 28 35 39 38 26 25 25 32 31 21 26 8 7 6 22 35 29 31 28 24 27 29 28 28 27 26 30 33 36 39 40 37 37 35 36 38 38 36 34 34 33 32 32 30 29 27 26 25
32 24 27 30 32 36 17 13 30 28 25 5 5 5 16 33 24 46 35 32 30 30 31 30 25 23 23 26 28 32 38 39 38 38 37 37 37 37 36 36 36 36 33 30 29 28 27 27 26
33 30 26 27 27 12 21 18 60 11 5 9 5 30 21 36 41 36 29 35 28 30 30 27 18 16 22 27 31 33 35 36 37 38 38 36 36 37 38 39 38 33 29 27 27 28 28 28 26
33 29 6 4 3 10 6 13 41 28 32 33 25 39 46 32 25 25 27 32 32 34 27 22 17 15 20 27 31 30 31 31 31 32 32 32 35 38 39 36 33 31 29 28 29 28 28 28 30
26 21 15 7 5 14 28 15 51 46 53 53 38 35 24 16 19 23 27 22 21 17 12 12 13 16 21 25 28 28 25 23 24 27 29 32 35 39 38 35 34 32 31 30 29 29 29 30 31
27 26 32 36 34 16 34 39 48 57 43 36 21 10 24 29 28 22 21 25 27 19 14 13 13 16 20 22 23 22 19 17 19 23 32 37 40 42 41 39 37 34 32 30 28 28 29 30 31
31 32 16 11 4 8 12 32 31 53 61 55 40 35 39 36 31 30 33 30 23 17 11 3 6 8 11 13 16 17 20 23 26 27 31 38 43 44 40 39 38 35 33 33 32 29 31 31 30
30 26 31 30 26 12 18 23 46 53 49 45 40 33 33 32 36 41 48 45 35 31 34 28 26 23 22 20 22 25 27 28 30 31 34 36 42 48 45 42 42 40 39 37 37 34 33 32 31
37 40 37 28 18 34 28 24 42 38 40 49 54 47 44 37 45 48 42 38 34 38 41 43 37 40 42 44 42 42 44 37 40 35 36 41 44 52 53 49 48 46 45 42 40 37 36 34 33

GFSSGP_700_spd_003.txt.gz
Wind_Speed
5 6 7 7 6 4 6 3 3 4 7 11 12 11 12 13 13 7 11 12 10 7 6 4 4 4 5 6 6 6 7 7 7 6 5 5 5 5 5 7 7 8 7 7 6 6 6 6 5
7 7 8 9 7 7 4 1 2 4 8 11 11 12 12 12 12 12 9 8 8 7 7 7 8 8 7 7 7 6 6 7 7 6 5 5 5 5 7 6 7 7 6 8 8 8 8 8 6
7 8 8 6 6 3 2 2 6 8 10 11 11 10 11 12 11 10 9 8 7 8 9 11 11 11 11 10 9 8 8 7 6 6 5 5 4 5 7 7 8 7 7 7 8 10 9 9 8
8 8 8 11 11 8 6 5 9 7 9 9 11 9 12 11 10 9 8 9 7 7 8 9 12 13 14 13 12 11 11 10 10 8 6 6 6 6 7 8 8 8 9 9 9 10 10 10 11
8 9 10 11 11 11 10 11 11 8 9 10 11 12 12 10 9 8 9 10 9 9 10 10 11 13 15 15 14 14 13 12 12 11 10 9 9 9 10 10 9 9 9 10 11 11 12 12 12
9 8 10 12 12 12 11 9 10 8 10 10 13 15 14 6 6 10 10 9 11 11 11 12 13 13 14 15 16 16 16 15 14 14 13 12 11 11 10 10 11 11 10 11 12 12 13 14 14
10 12 16 16 15 12 9 10 11 11 12 12 15 16 9 13 16 14 13 13 12 12 11 11 12 13 14 15 16 17 16 16 16 16 16 15 13 12 12 11 11 12 13 13 14 15 16 17 17
12 15 18 16 16 17 14 12 14 16 14 16 17 16 15 15 14 14 14 14 14 14 13 12 12 14 15 15 16 17 17 17 17 17 17 17 15 14 13 12 12 12 14 15 16 17 19 20 21
15 18 20 18 17 17 18 20 20 23 20 18 15 14 17 18 17 16 16 16 15 15 15 15 15 15 15 16 17 18 17 18 18 18 17 18 17 17 16 14 14 15 15 16 16 17 19 21 23
21 24 23 21 21 24 25 25 24 26 25 17 18 14 18 15 12 14 16 16 17 16 17 19 19 19 18 18 18 18 18 19 19 19 20 20 19 20 18 17 17 17 17 18 17 18 19 21 22
27 28 23 26 24 27 28 27 27 28 27 18 20 19 18 18 20 19 19 19 19 19 20 21 22 22 22 21 20 20 20 20 20 20 21 22 22 21 21 20 19 18 18 19 19 19 20 21 22
30 30 28 30 29 29 30 32 33 31 25 21 20 25 26 22 23 24 24 22 20 21 19 19 22 25 25 24 23 22 23 22 22 22 24 24 24 24 24 22 21 20 20 19 20 20 20 20 21
32 31 32 33 35 34 33 32 35 36 25 25 24 27 28 29 28 27 29 27 24 21 21 19 21 23 25 27 25 24 24 23 23 25 26 27 26 26 26 25 24 23 22 21 21 20 21 22 22
36 36 35 38 37 36 37 36 40 35 30 31 30 28 28 30 28 30 30 30 28 24 21 25 24 25 26 28 27 26 26 26 26 27 28 29 29 29 29 28 27 26 25 24 22 21 22 22 24
33 36 39 40 41 41 40 44 42 37 37 35 32 32 31 30 31 33 32 32 30 29 29 26 25 28 29 29 30 31 29 29 29 29 30 31 32 32 31 30 30 29 28 27 25 24 23 23 24
36 38 41 37 36 39 39 47 39 37 40 41 38 35 36 34 33 33 33 34 34 35 35 35 34 31 32 32 32 34 34 33 32 32 33 33 34 34 34 34 33 32 31 30 28 26 25 24 25
35 35 40 39 36 41 42 48 44 39 42 43 41 40 38 37 33 32 33 37 39 40 42 43 42 39 37 36 37 37 37 37 37 38 37 38 38 37 37 36 36 36 34 32 30 28 27 26 26
40 39 39 41 38 43 50 54 47 42 42 43 41 38 33 31 29 26 28 32 37 38 42 45 46 45 42 43 43 42 40 39 38 37 39 41 42 41 40 39 39 38 37 35 31 30 29 28 27
36 39 42 43 40 45 46 49 44 41 37 36 34 29 26 25 24 12 14 15 19 27 35 38 42 43 44 44 43 43 41 39 37 36 36 39 43 42 42 41 41 41 38 35 35 32 30 29 28
33 36 41 45 33 39 45 51 46 35 26 31 30 21 15 4 7 11 14 15 18 18 23 29 36 38 41 43 41 41 40 40 38 38 39 41 43 42 42 43 42 41 38 38 36 33 32 30 29
35 34 35 38 36 39 42 37 21 23 31 15 17 12 5 13 13 21 24 21 24 24 23 24 26 32 34 38 42 44 44 43 40 40 42 42 42 42 42 42 42 40 39 38 37 36 33 32 30
28 22 26 31 31 19 29 20 32 17 11 14 6 8 13 18 19 29 32 42 34 32 27 28 27 26 26 25 27 29 29 31 30 34 38 39 40 41 41 42 42 41 41 40 38 37 35 32 29
26 28 29 33 34 33 17 14 23 24 11 10 10 11 20 27 32 36 44 32 32 28 24 21 28 27 25 23 23 27 29 30 29 34 36 39 41 42 42 42 44 43 42 41 39 38 34 33 32
30 30 27 23 22 9 17 12 12 4 10 7 12 19 38 43 33 26 21 23 27 29 25 23 24 19 21 19 19 23 28 30 32 35 34 37 41 42 43 43 44 44 43 41 39 37 36 35 33
26 23 6 3 2 8 2 10 26 21 22 26 29 36 28 14 20 22 25 25 25 24 25 18 19 22 24 23 23 21 23 25 28 30 32 35 38 41 41 42 43 44 42 40 40 39 38 36 32
28 27 17 7 5 10 27 16 42 36 41 45 23 15 15 14 18 21 28 30 23 25 28 22 20 20 20 23 23 23 22 22 23 25 28 31 35 38 39 40 42 43 42 42 41 40 39 36 32
22 24 30 32 31 10 28 33 49 56 26 15 28 29 26 25 29 34 34 35 33 30 27 21 18 20 19 17 18 19 20 20 21 22 24 24 28 33 38 42 43 44 43 43 42 40 37 34 33
34 35 17 12 3 11 14 30 33 45 41 37 36 34 26 28 28 29 33 39 39 38 34 35 33 31 29 30 25 21 19 19 19 19 18 19 21 27 35 41 44 47 47 45 42 40 37 36 34
22 26 31 31 27 11 13 15 33 38 38 42 38 34 36 39 42 37 31 37 46 44 37 30 31 37 40 44 42 38 38 39 33 27 24 25 25 24 28 37 44 47 47 47 44 40 38 38 35
41 33 30 14 12 26 27 18 31 34 37 36 45 49 52 49 42 37 32 31 35 44 46 47 45 43 45 49 52 52 51 44 41 37 34 36 38 37 35 34 44 50 51 52 50 45 41 43 40

GFSSGP_700_spd_006.txt.gz
Wind_Speed
5 5 6 8 4 3 4 1 2 3 5 9 11 10 10 7 7 5 10 9 9 6 2 1 2 3 5 7 7 8 10 11 11 10 10 10 10 9 9 10 8 7 5 6 6 5 4 4 4
6 6 7 8 3 4 2 1 2 5 7 10 11 10 9 9 6 6 5 6 6 6 4 3 3 5 6 7 7 7 8 9 9 9 8 8 7 7 7 7 6 7 4 6 4 6 5 6 6
6 6 7 5 3 2 2 2 6 8 8 8 10 10 8 10 8 8 7 5 6 6 7 8 8 7 8 8 9 9 9 9 10 9 9 9 8 7 6 6 6 5 5 5 5 6 5 5 7
6 6 7 5 8 8 7 8 9 8 7 7 8 5 11 11 8 8 8 8 7 7 7 9 10 9 10 11 11 12 12 12 12 10 8 8 7 6 6 6 6 6 5 6 7 6 7 8 8
7 7 6 8 9 8 8 9 9 9 9 10 9 9 12 7 4 5 7 7 8 9 9 10 11 11 12 12 13 14 14 14 13 13 12 10 9 8 8 7 7 6 6 7 7 8 8 9 10
8 7 7 7 12 11 8 6 6 8 10 11 12 13 7 5 8 12 11 10 9 9 10 12 13 13 14 15 15 16 16 16 15 15 15 13 12 10 9 9 9 9 9 9 10 10 10 11 11
10 11 11 14 13 11 10 8 7 7 10 12 14 14 7 12 11 12 12 11 11 10 10 10 12 13 14 15 16 17 17 17 16 16 16 16 15 13 11 10 10 10 11 12 12 13 13 13 13
11 13 15 14 14 16 12 12 13 14 13 13 14 13 11 12 13 13 14 14 13 13 12 11 12 13 15 16 16 18 19 18 18 18 18 18 18 17 15 13 12 12 13 13 13 14 15 16 17
16 16 16 18 17 18 21 21 20 20 18 14 13 13 14 12 11 9 9 11 14 15 15 16 16 16 16 17 17 19 20 19 20 20 19 20 20 19 18 17 16 15 15 16 16 16 17 18 19
19 22 21 20 21 24 26 26 24 24 22 15 16 14 18 14 12 12 12 14 14 15 17 19 20 20 20 19 19 20 20 21 21 21 21 22 22 22 20 19 19 18 18 17 18 19 19 20 20
24 26 24 24 24 26 28 29 29 28 25 20 22 19 19 18 18 17 18 17 15 18 18 19 22 23 23 22 22 22 22 22 23 23 23 25 25 24 23 23 22 21 20 19 19 20 20 20 21
27 28 26 28 27 29 29 32 33 33 27 22 25 25 23 23 23 23 23 23 22 19 19 20 19 22 24 25 26 24 24 24 25 25 25 26 26 26 26 26 25 24 23 22 21 21 21 21 22
32 32 30 31 32 32 30 29 34 36 29 26 26 26 27 27 27 27 27 26 23 23 21 21 22 22 22 24 26 27 26 26 26 27 27 28 28 28 29 29 28 27 26 25 24 23 23 23 24
34 35 35 35 34 34 36 31 34 33 29 28 27 28 27 29 27 28 28 28 29 28 26 26 25 25 28 27 27 27 28 28 30 30 29 29 30 30 31 32 31 30 29 28 27 26 25 25 26
27 30 34 36 32 32 30 36 34 31 34 33 30 29 31 30 31 31 31 32 33 33 33 33 33 32 30 30 31 32 31 31 31 31 31 31 31 32 33 34 34 33 33 32 30 29 27 27 27
32 33 35 35 35 31 29 37 35 32 35 35 34 31 30 28 29 30 33 35 36 37 38 39 39 38 38 36 35 35 35 34 32 33 33 34 33 34 36 37 36 36 36 35 34 32 30 29 28
27 22 27 38 37 33 23 30 41 39 40 38 33 29 25 23 20 25 28 30 31 33 37 40 43 43 43 42 41 40 40 40 38 37 36 36 36 38 39 39 39 39 39 38 36 35 33 32 30
23 29 29 34 36 40 42 43 38 34 33 30 26 18 19 15 20 21 17 10 9 15 22 31 38 41 45 47 47 47 46 45 44 43 38 37 38 39 42 42 42 41 41 41 39 37 36 35 32
34 34 34 37 33 38 37 39 38 36 32 20 19 23 18 7 11 6 8 9 7 9 18 23 24 30 39 41 43 48 49 47 46 45 40 38 37 38 41 44 45 44 43 41 40 40 38 37 34
30 32 37 33 27 34 35 38 29 12 24 15 7 11 4 7 8 10 12 12 18 18 19 21 24 24 26 30 35 39 44 48 45 45 43 41 41 42 43 43 44 44 44 45 43 41 40 39 36
30 30 28 27 30 34 31 28 18 22 6 15 14 4 6 4 8 14 20 25 27 34 27 28 23 25 26 24 26 32 35 43 44 45 45 45 45 45 45 44 44 44 45 45 43 42 42 41 39
26 25 23 27 27 20 28 17 22 7 11 2 7 5 4 12 24 30 34 34 39 36 25 23 21 22 26 27 26 25 30 36 41 43 45 47 49 49 48 46 46 45 45 45 45 43 44 44 43
29 22 26 32 29 29 18 14 10 13 5 16 5 10 17 31 43 37 31 33 34 31 31 29 22 21 25 29 30 29 31 33 38 40 42 44 47 49 51 49 47 46 45 45 46 46 48 46 45
27 29 30 24 18 11 16 10 8 5 12 14 17 19 28 40 45 30 27 28 35 30 26 24 21 21 26 30 31 33 32 32 33 36 38 42 44 45 48 48 48 47 46 46 46 47 48 48 44
29 31 12 8 7 13 15 17 20 13 24 30 29 34 44 47 27 24 27 28 28 28 27 26 23 21 22 25 23 24 27 28 30 34 37 39 40 42 44 47 48 48 46 46 47 49 49 48 45
20 17 12 8 15 20 23 16 23 17 22 26 33 40 28 20 21 26 29 28 29 31 33 31 25 21 20 18 16 16 18 19 23 28 32 36 37 39 42 46 46 46 46 47 49 51 49 49 48
18 21 25 25 31 15 34 40 42 34 34 32 25 19 24 27 27 28 34 34 32 35 36 36 34 30 30 31 28 23 25 21 20 21 26 32 35 38 40 42 45 46 47 47 47 50 50 50 49
26 23 19 18 8 20 24 32 28 24 30 35 37 31 30 28 24 26 30 37 40 39 36 36 37 34 33 33 36 37 40 37 34 32 34 29 27 33 36 40 42 44 46 47 48 49 50 51 49
29 27 23 23 23 7 10 21 33 37 36 34 33 32 35 34 35 41 43 40 41 42 43 43 42 45 46 45 44 44 43 47 46 44 42 36 32 30 32 35 35 39 42 43 45 49 51 52 49
22 28 30 24 17 29 31 34 33 28 34 41 47 44 28 34 37 39 42 46 45 47 49 48 48 47 47 46 52 52 49 47 49 49 45 39 36 35 34 35 38 39 39 41 45 47 50 52 53

GFSSGP_700_spd_009.txt.gz
Wind_Speed
6 7 8 8 4 2 3 1 2 4 4 9 10 9 7 5 5 6 10 7 5 3 2 2 2 3 5 5 6 8 9 11 12 12 11 11 11 11 10 10 8 8 6 7 7 5 4 4 4
7 7 8 5 2 5 6 1 4 4 9 10 10 10 8 4 6 8 9 8 6 3 2 2 2 4 5 6 6 7 8 9 10 11 11 11 10 10 10 8 8 7 6 6 6 5 4 5 5
8 7 5 3 2 6 4 4 6 9 9 9 10 8 6 6 8 7 8 8 9 7 6 5 5 6 7 8 8 9 9 10 9 9 9 8 8 8 8 8 7 7 7 7 6 5 5 6 6
7 7 5 0 5 6 5 8 9 9 10 9 10 6 13 8 6 7 7 6 7 9 9 8 7 8 8 10 10 11 11 11 11 11 9 8 9 8 8 8 7 8 8 9 7 7 6 6 7
7 5 3 5 7 6 8 9 8 6 8 10 10 6 11 7 4 6 8 9 7 7 8 10 11 10 10 11 13 13 14 13 14 13 13 12 11 11 10 10 9 9 9 9 9 10 8 9 8
6 6 5 7 7 9 8 7 6 6 7 10 12 12 7 7 12 12 11 9 9 8 8 8 11 12 13 12 14 15 15 16 16 16 16 15 14 14 12 11 10 10 10 10 10 11 11 10 10
7 7 8 10 10 7 6 6 6 5 8 11 14 14 7 13 12 13 13 12 11 10 10 10 10 11 13 15 15 15 17 18 17 17 18 18 17 17 15 13 12 11 11 11 11 12 13 13 13
10 10 9 8 8 12 10 15 14 14 12 13 15 7 6 16 14 13 12 12 12 12 13 13 13 13 14 15 16 17 17 18 19 19 20 20 20 19 18 17 15 14 14 13 13 13 13 14 14
14 10 11 13 10 6 15 18 20 20 17 15 18 13 13 17 15 13 11 10 10 11 12 15 16 17 17 18 18 19 19 20 20 21 21 22 21 21 20 19 18 17 16 16 16 15 16 16 16
17 13 12 14 17 20 19 23 27 26 22 19 20 20 23 20 18 17 17 17 17 16 17 15 17 19 21 22 21 21 21 21 21 22 22 24 24 24 24 23 22 21 20 20 20 19 20 20 20
21 22 15 20 23 25 27 26 27 27 25 20 20 21 24 24 22 22 21 21 21 22 20 18 20 20 22 25 24 24 24 23 24 24 24 25 26 27 27 26 26 25 24 23 22 22 22 22 22
26 25 24 25 27 28 28 28 30 31 29 22 23 25 25 26 26 28 26 25 26 25 24 23 23 23 22 24 26 27 27 26 26 26 27 27 28 28 28 28 28 28 27 26 25 24 23 23 23
31 29 28 31 32 31 29 28 31 32 28 22 23 25 27 27 28 29 29 28 29 28 29 28 28 27 27 27 25 27 27 28 28 30 30 30 30 30 30 30 31 31 30 29 28 27 26 25 24
30 35 33 31 31 33 27 27 27 27 25 26 26 26 28 29 29 28 31 32 31 31 32 31 33 30 31 30 29 27 28 29 30 32 32 31 32 32 32 32 33 33 32 32 31 30 29 27 26
27 31 33 32 24 25 27 33 25 21 21 31 32 29 28 28 28 31 29 32 34 35 37 38 38 35 35 34 33 32 31 31 31 32 33 33 35 34 34 34 35 35 34 34 34 33 32 31 29
31 25 24 14 24 20 19 31 21 27 34 30 28 25 25 24 24 25 28 31 32 33 36 38 39 39 38 39 38 38 36 35 35 34 35 35 36 36 36 36 36 37 37 36 37 36 36 34 32
16 20 21 20 20 19 14 20 32 26 26 26 24 24 21 18 17 23 24 24 24 23 24 29 33 37 39 40 43 43 43 41 39 38 38 38 37 38 38 38 38 38 38 39 39 39 39 37 36
22 26 26 28 28 27 29 28 28 30 27 21 14 13 16 20 24 20 16 14 12 7 8 15 21 24 30 37 40 45 47 47 45 43 42 42 41 41 41 42 41 41 41 41 41 40 41 41 40
27 27 28 29 25 26 30 24 30 19 18 21 22 17 15 18 19 13 10 11 11 13 12 14 20 22 24 23 28 37 38 44 48 48 48 46 45 44 44 44 44 44 44 43 42 42 43 44 42
30 24 26 23 16 24 27 31 29 13 20 19 14 13 17 14 12 10 11 14 16 20 20 24 21 19 22 26 24 26 34 38 42 47 51 50 48 47 47 46 45 45 46 46 45 45 45 46 44
26 23 24 23 22 25 19 22 22 16 14 18 16 22 18 13 8 13 16 20 25 27 26 20 18 19 21 23 25 26 28 32 39 44 49 54 52 51 50 50 49 47 47 47 47 47 47 47 45
21 18 22 24 20 17 17 17 20 10 10 9 12 19 18 14 13 15 22 31 30 25 22 21 18 18 22 23 27 28 28 31 35 39 43 49 52 53 54 53 54 53 51 51 48 48 49 50 48
20 24 24 27 28 23 17 13 11 17 13 17 22 19 15 16 20 23 34 37 24 22 21 20 19 17 19 23 28 31 31 33 35 37 40 43 50 54 55 55 56 56 53 53 51 49 51 52 50
27 29 28 29 22 14 21 18 13 7 9 24 26 19 19 23 27 36 40 31 23 21 21 20 20 20 19 20 23 26 28 29 30 32 35 39 43 47 50 53 55 56 56 54 52 49 50 51 52
24 23 14 12 11 14 17 12 21 12 17 23 21 27 33 35 35 43 42 24 24 28 27 27 27 24 21 20 20 18 18 17 17 18 21 25 31 37 42 47 49 53 54 53 54 52 51 51 52
17 14 15 11 13 16 20 12 18 19 23 24 29 32 31 35 41 30 27 29 28 31 35 37 37 33 30 29 28 28 29 29 28 27 25 22 21 23 29 38 43 47 51 53 54 54 51 51 53
11 12 15 13 26 15 27 31 30 34 34 36 36 35 35 27 25 27 30 33 37 38 39 41 43 37 35 34 32 32 33 35 35 35 34 34 32 29 29 28 33 41 47 50 53 56 54 52 53
22 22 17 11 4 7 17 31 31 30 30 30 24 28 31 29 31 30 31 30 33 34 35 39 41 43 44 42 40 40 41 43 42 43 43 43 43 40 35 33 32 33 40 46 49 52 55 55 54
20 21 21 23 25 13 17 24 33 26 29 33 34 30 30 32 38 40 38 35 34 39 41 42 44 45 46 47 43 42 42 42 43 43 42 39 39 41 39 36 36 35 35 40 45 49 52 54 56
33 31 27 29 12 23 25 26 37 41 42 44 39 34 38 42 40 42 42 46 53 53 49 44 44 45 42 41 42 44 44 43 42 43 43 41 40 40 39 37 37 38 38 38 41 44 49 53 55

GFSSGP_700_spd_015.txt.gz
Wind_Speed
8 8 6 9 9 12 13 7 5 5 8 10 9 7 6 6 7 4 10 8 7 5 1 3 4 5 5 5 7 7 9 11 11 11 12 12 12 11 11 10 10 8 7 7 8 8 8 7 5
9 9 10 16 13 10 12 6 8 9 8 8 6 5 6 5 6 8 8 7 6 4 3 1 3 3 5 6 6 7 8 8 8 9 10 10 10 9 9 8 8 6 7 7 8 7 8 7 5
9 8 8 7 9 8 4 4 5 10 7 6 7 3 5 8 7 5 6 6 6 3 4 4 4 5 5 7 7 8 8 8 9 9 9 8 8 7 8 7 6 6 8 7 7 7 7 6 6
8 6 10 9 7 4 3 6 6 4 5 5 6 3 7 7 4 3 7 9 8 5 4 6 6 6 6 7 8 9 9 10 10 10 9 9 9 8 8 7 6 6 7 7 7 8 6 7 6
5 6 10 7 4 4 7 7 5 4 5 7 6 6 10 7 4 7 10 10 8 8 5 7 7 8 8 9 9 10 11 11 12 11 11 11 10 9 9 8 8 7 8 7 8 8 8 8 7
2 5 5 2 1 4 9 5 6 8 8 10 12 10 12 10 9 11 10 12 11 10 8 7 8 8 10 11 11 11 12 13 13 13 13 13 12 13 12 11 10 10 10 9 9 10 9 10 9
6 4 2 1 2 2 6 11 7 9 8 11 13 14 7 8 11 13 15 14 13 10 10 10 10 10 10 11 12 13 13 14 14 15 15 15 15 15 15 15 14 13 12 11 11 11 11 12 11
6 5 2 2 5 8 11 10 13 11 10 13 13 6 6 11 15 17 15 15 14 11 8 9 10 13 12 13 13 14 15 15 16 17 18 18 17 17 17 17 16 16 14 13 13 12 13 13 13
7 5 3 1 4 4 8 16 18 19 18 15 15 14 9 11 13 18 17 16 17 15 14 14 13 14 15 15 16 16 17 17 17 17 19 19 19 18 19 19 18 18 17 16 16 15 15 15 15
9 9 3 6 9 14 15 18 22 23 22 14 15 14 15 17 21 20 16 15 19 21 20 20 20 17 17 17 18 18 19 20 20 19 19 19 20 20 21 21 20 20 18 18 18 17 17 16 16
12 10 8 7 13 18 19 19 21 23 23 14 16 16 15 20 24 28 27 23 21 23 24 24 24 23 22 21 19 20 20 21 22 21 21 21 21 21 21 21 21 21 20 20 19 20 19 18 18
15 13 13 15 13 19 22 19 18 20 19 18 15 16 17 16 16 19 24 25 25 26 27 28 27 27 27 25 24 22 22 22 23 24 24 24 23 23 22 21 22 22 21 22 22 23 21 21 21
20 22 21 21 20 21 23 19 18 15 18 16 13 12 16 19 23 25 25 28 28 28 31 30 30 29 28 29 28 26 23 23 23 25 26 26 26 25 23 23 24 25 24 24 24 25 23 24 23
24 25 24 22 22 20 18 11 15 14 17 16 18 19 23 25 26 28 26 27 29 30 28 30 35 34 31 30 30 29 28 26 26 27 27 28 28 28 26 25 27 28 26 26 26 27 27 27 26
19 23 25 20 8 14 17 15 17 19 18 15 15 18 23 25 26 28 27 26 26 28 28 29 29 32 32 32 33 33 32 32 31 29 30 30 31 30 29 27 29 29 28 29 28 29 30 30 29
24 22 18 12 13 19 15 21 24 20 17 13 18 23 24 25 23 25 27 24 20 21 24 25 22 23 27 27 30 35 37 37 37 35 32 33 33 33 31 30 31 32 31 31 31 31 32 32 31
17 17 15 9 11 15 19 26 26 16 16 20 22 24 25 26 26 23 19 22 18 14 15 13 14 14 16 19 20 25 31 37 40 41 39 37 37 36 35 35 35 36 35 34 33 33 34 33 33
17 16 13 18 20 25 29 29 20 18 20 22 20 23 24 27 27 26 25 16 12 8 8 9 10 12 13 13 17 17 20 25 33 39 42 43 42 41 39 39 39 39 39 38 37 36 35 36 37
16 18 22 24 22 28 26 24 21 24 10 20 23 26 25 27 29 26 11 11 12 13 12 12 14 13 13 14 14 17 19 21 22 26 32 39 43 45 44 43 43 41 42 42 41 40 40 39 40
20 26 29 28 23 18 20 25 28 21 22 19 24 28 30 27 22 16 12 9 6 8 9 12 14 16 15 15 16 17 18 20 23 24 25 27 31 35 41 44 46 47 46 45 45 45 44 44 43
24 25 27 24 15 19 25 28 22 21 27 25 27 27 31 30 20 18 15 10 10 12 15 16 17 17 18 18 18 17 17 19 22 23 24 24 25 28 33 36 39 43 48 49 48 47 48 47 47
28 24 15 13 16 16 12 12 23 15 17 24 27 27 28 29 21 19 15 14 15 17 19 21 20 19 19 19 16 17 17 15 16 19 22 23 24 25 26 30 32 34 39 44 48 50 51 51 51
8 9 12 16 20 22 20 13 15 22 20 21 24 24 25 25 22 21 17 17 20 21 21 14 14 15 16 18 20 20 19 19 18 17 17 18 18 19 19 21 25 29 31 34 39 47 50 53 53
12 14 14 18 19 5 14 15 16 10 13 17 20 25 28 23 21 22 21 22 22 22 21 19 19 19 22 25 27 29 29 27 26 27 26 24 23 22 22 21 20 20 22 26 30 36 43 49 53
15 12 4 1 4 7 12 7 20 17 15 16 19 19 21 24 24 25 26 25 21 18 17 19 22 25 28 28 29 29 27 27 29 30 31 33 33 32 32 32 31 30 28 26 26 27 34 40 45
12 13 7 5 3 4 16 11 16 20 18 13 15 19 21 22 24 25 25 25 22 20 21 24 28 31 31 33 36 39 40 40 37 35 33 32 34 37 36 34 34 34 34 34 33 32 30 31 37
10 16 16 14 16 7 13 17 25 26 26 21 15 19 21 22 23 22 20 21 24 30 31 32 34 34 34 38 40 41 44 48 48 46 41 37 33 34 36 39 40 37 36 35 35 34 35 35 34
14 13 8 7 2 4 9 16 18 9 15 14 12 15 18 24 29 30 29 28 28 29 32 33 32 36 40 42 45 47 44 44 46 45 43 40 38 36 35 36 36 38 41 39 37 36 36 36 37
13 17 18 17 18 4 2 10 14 13 14 21 25 28 30 28 21 21 23 27 28 30 34 39 44 48 46 41 41 41 42 42 44 44 41 39 40 39 38 36 36 36 38 39 41 38 37 37 37
18 21 20 15 9 16 19 24 34 27 27 23 25 30 29 23 25 31 39 48 52 48 41 40 43 40 43 43 43 42 42 41 40 40 40 41 40 40 41 40 40 40 41 42 42 43 44 43 42

GFSSGP_700_spd_021.txt.gz
Wind_Speed
12 15 13 9 5 4 7 5 4 6 4 6 5 5 5 5 4 2 6 5 5 3 1 1 1 2 3 5 8 10 11 10 9 9 8 9 10 10 11 10 10 10 11 11 11 10 8 7 6
10 12 8 7 7 7 6 4 4 6 5 4 4 3 4 6 5 5 8 7 6 4 2 1 3 3 3 4 6 8 10 11 11 12 12 12 13 13 12 10 10 9 9 9 9 9 8 8 6
10 12 8 6 5 4 3 4 6 6 4 4 5 1 6 7 5 5 8 7 6 5 3 1 3 4 4 5 6 7 8 9 10 11 11 12 11 11 10 9 8 7 8 8 8 8 8 7 6
9 8 5 7 9 7 6 5 5 4 2 3 5 2 6 6 4 3 8 8 8 5 3 2 3 5 6 7 8 10 10 10 10 10 11 11 10 11 10 9 8 7 7 7 8 8 8 8 7
4 4 3 5 5 5 4 5 6 5 4 4 5 5 8 9 4 4 6 6 7 7 6 5 4 5 6 8 9 11 12 12 12 12 12 12 11 11 12 10 9 8 8 7 7 8 9 9 9
1 2 3 5 6 3 1 1 6 5 8 7 8 8 8 7 5 6 6 6 8 7 6 6 7 6 6 7 9 11 12 13 14 14 14 15 13 13 15 12 11 10 10 9 9 9 9 10 9
2 1 3 3 3 4 3 5 6 6 10 10 11 11 7 7 10 11 12 11 7 8 8 7 7 8 8 8 9 10 12 14 15 16 16 16 16 14 17 15 13 13 12 12 12 10 10 10 10
4 3 3 5 5 5 6 7 7 9 12 15 14 11 11 11 13 15 17 16 13 11 11 10 10 9 9 10 10 11 12 13 15 16 17 17 18 15 17 18 16 15 14 13 13 12 11 11 11
4 4 3 6 6 6 7 9 12 13 14 17 19 14 15 16 17 17 16 16 15 14 15 14 14 14 15 14 14 13 14 14 15 16 17 18 18 16 16 18 18 16 15 14 14 14 13 12 12
7 7 5 7 7 7 9 12 16 16 15 13 16 18 18 19 20 20 19 18 17 19 19 19 19 19 17 17 17 17 17 16 17 17 17 18 19 17 16 18 18 17 17 16 15 15 15 14 14
9 7 7 8 9 11 12 12 16 17 13 15 15 13 16 19 19 20 21 21 22 21 20 21 22 23 24 23 21 20 20 20 19 18 19 20 20 19 18 19 19 19 18 18 18 18 18 17 16
9 7 7 8 11 13 15 14 15 14 8 8 13 15 15 16 17 18 20 23 23 22 23 23 23 23 23 25 26 24 23 23 22 21 21 22 22 22 21 21 21 20 21 21 20 21 21 19 19
16 12 12 12 11 13 15 13 13 6 7 11 10 13 17 20 20 19 18 20 23 24 24 25 24 24 24 24 23 24 25 25 25 25 25 24 24 24 24 24 24 23 23 23 24 24 24 23 22
19 19 18 14 12 16 12 10 10 6 11 15 16 16 15 17 19 21 20 20 21 22 24 24 24 22 23 26 27 27 27 28 28 28 27 27 26 26 26 26 26 26 26 27 27 27 27 27 26
17 19 20 20 9 10 10 13 12 9 14 18 19 18 18 19 21 23 22 19 17 17 18 20 20 18 19 21 23 27 27 29 32 32 30 28 28 28 28 28 28 28 28 30 30 30 30 30 29
22 22 21 8 10 12 13 16 13 13 19 20 20 22 22 23 22 20 18 18 20 20 18 16 16 15 11 11 14 18 21 24 28 32 34 33 31 31 31 30 30 30 31 32 33 32 32 32 32
19 16 17 16 13 14 15 19 15 20 20 20 19 20 23 22 21 19 18 20 19 17 11 9 10 10 8 7 8 9 12 16 20 23 25 29 33 35 36 34 34 33 31 32 34 35 35 34 35
19 15 14 18 20 20 20 25 22 20 24 22 21 19 20 23 25 23 20 17 18 10 9 8 8 9 9 8 7 7 8 10 12 15 17 19 21 24 30 34 36 37 33 35 34 37 38 38 38
17 20 20 23 22 27 28 27 24 24 24 21 19 19 23 26 26 23 21 20 16 10 10 12 11 9 8 7 7 7 7 8 8 9 11 13 16 18 20 24 28 32 33 38 41 41 41 39 40
22 24 29 27 21 26 25 29 29 19 19 19 20 25 25 26 27 23 19 16 15 14 12 10 9 8 8 8 7 8 10 10 11 12 12 12 12 13 16 16 19 21 25 28 32 36 41 43 42
26 26 25 25 25 26 30 35 26 20 20 20 26 23 24 23 22 20 18 17 16 16 15 12 10 10 9 8 9 8 8 8 9 10 12 14 15 16 18 21 22 21 20 21 24 27 31 34 37
26 26 26 27 26 23 14 8 9 18 21 21 22 23 21 18 17 18 20 19 18 18 17 15 14 14 14 10 10 10 9 10 12 14 15 16 17 19 21 23 25 27 28 27 26 26 27 28 30
25 19 13 11 13 16 17 14 10 9 17 24 21 20 19 18 17 19 20 20 20 19 18 17 17 18 17 13 12 13 12 13 14 16 17 18 19 21 22 24 26 28 32 34 35 34 33 33 31
12 12 11 13 16 6 24 22 7 8 13 17 14 14 17 19 20 22 22 21 21 18 18 18 17 17 16 16 15 16 17 18 19 20 22 24 26 27 28 29 28 29 30 32 35 36 39 40 38
19 13 3 3 2 6 9 14 24 13 14 13 11 13 16 20 22 23 21 19 18 17 18 18 19 20 21 21 23 24 26 28 30 30 30 31 31 32 32 31 32 35 36 37 37 37 40 41 43
25 25 11 7 3 4 7 10 10 11 21 18 16 21 19 22 22 19 18 16 15 14 18 22 25 25 27 31 35 41 44 42 41 40 38 38 41 39 39 39 38 36 37 37 39 40 42 43 44
21 31 28 19 15 8 13 20 23 16 20 19 20 25 20 15 13 12 10 13 16 20 23 26 30 32 34 38 42 44 44 43 42 43 45 46 48 47 44 42 40 40 40 39 39 40 42 43 44
29 21 12 13 2 4 8 13 19 16 14 17 16 12 13 11 10 12 15 19 22 25 28 30 34 38 41 43 44 46 45 45 46 48 47 48 45 43 43 42 42 41 41 42 43 44 43 44 45
27 29 21 18 21 5 2 13 14 14 17 15 15 13 13 15 16 19 24 28 33 37 38 37 38 40 44 46 46 44 44 46 46 45 44 43 42 41 41 43 43 44 44 45 47 48 49 51 52
30 32 31 27 14 14 15 32 21 20 16 16 15 19 18 20 24 29 35 41 40 38 36 36 37 36 37 38 40 41 44 44 41 39 38 37 38 39 41 42 43 45 47 49 51 52 52 53 54

GFSSGP_700_spd_024.txt.gz
Wind_Speed
12 14 14 10 4 4 8 6 7 8 5 7 7 7 8 7 8 4 7 7 7 6 5 3 2 3 4 6 8 9 9 8 7 7 6 7 8 9 11 12 10 9 10 10 8 8 8 8 7
13 12 7 4 6 8 7 6 5 6 6 6 5 6 6 8 7 9 8 8 7 5 4 3 3 1 1 2 4 6 9 10 10 10 10 9 10 11 13 12 11 9 8 7 7 7 7 7 7
11 9 5 5 4 6 5 4 4 4 4 5 6 3 7 7 5 6 7 8 7 5 4 2 2 3 3 2 3 4 5 7 8 9 10 11 11 12 11 10 9 8 8 7 7 7 7 6 6
9 8 3 3 9 9 7 6 6 5 4 5 7 3 4 5 3 1 4 4 6 5 3 2 1 3 4 5 5 5 6 7 8 8 9 9 10 11 11 9 8 8 7 7 7 7 8 8 7
6 4 2 5 6 7 5 7 6 5 5 4 6 6 7 7 3 3 5 2 5 6 4 2 2 2 4 6 7 8 9 9 9 10 10 10 10 10 12 9 9 8 8 8 8 8 8 8 8
2 2 2 4 6 5 3 1 2 3 5 5 6 7 8 7 4 6 5 6 7 7 7 5 4 4 4 5 7 9 10 11 11 12 12 12 11 11 14 11 11 10 9 10 9 9 8 8 8
1 2 3 4 6 6 4 3 4 3 6 6 9 10 8 8 9 10 9 10 7 7 6 5 5 5 6 7 8 9 10 12 13 13 14 14 14 12 15 14 13 13 12 12 12 11 9 8 7
3 2 3 5 5 6 6 6 5 7 11 13 11 9 12 13 14 13 14 15 13 10 10 9 9 8 7 7 8 10 11 12 13 14 15 16 16 13 15 16 15 14 13 13 13 13 11 10 8
3 3 3 5 5 5 5 6 8 10 13 15 18 15 14 14 14 15 16 17 16 15 15 14 14 14 14 12 12 11 12 13 14 14 15 16 16 14 14 17 17 16 15 15 14 14 13 12 11
6 6 4 5 6 6 7 9 12 12 13 14 13 17 16 14 14 15 15 15 17 18 19 18 18 18 18 18 18 16 15 15 15 16 16 17 17 16 16 17 18 17 17 17 16 16 16 14 14
7 6 5 6 7 8 11 12 13 14 12 16 11 10 13 14 14 15 15 15 15 15 15 16 18 18 18 19 19 21 21 20 19 19 18 18 19 19 18 19 19 20 19 19 18 19 19 17 17
7 5 6 7 10 12 13 15 14 13 12 10 12 14 13 13 14 16 17 18 18 19 19 20 20 20 20 20 20 20 21 23 23 23 23 22 22 22 21 22 22 22 22 22 21 21 22 21 21
10 10 12 11 13 15 15 14 17 8 10 8 9 12 15 17 17 14 14 17 18 19 18 18 19 19 21 22 21 22 22 23 25 25 25 26 26 25 24 24 24 25 24 24 25 25 25 25 23
16 17 15 13 11 15 17 14 13 9 10 11 13 15 16 16 17 18 19 18 17 18 18 17 17 17 18 19 20 22 24 25 27 28 27 27 27 28 28 27 26 27 28 28 27 28 28 29 28
16 17 19 19 15 11 10 11 10 12 14 15 18 19 18 18 19 20 20 16 14 16 18 20 20 15 14 16 18 21 23 25 27 27 28 29 28 28 30 29 29 30 30 30 30 31 32 31 31
20 22 19 10 7 10 11 13 11 14 17 19 21 21 20 20 19 17 15 15 16 17 17 14 14 12 9 10 14 17 19 21 22 23 25 27 28 29 29 30 31 31 30 32 33 34 34 33 34
19 16 19 15 16 12 13 17 15 16 19 23 22 23 21 22 19 20 19 17 16 16 13 8 7 7 7 8 10 13 15 16 17 17 19 20 22 25 26 29 31 32 31 33 32 34 35 36 38
18 16 17 19 14 14 17 21 21 24 26 26 25 25 21 20 22 23 21 18 15 13 9 8 7 8 10 11 11 12 13 13 13 12 12 12 14 16 19 20 22 24 26 29 29 29 38 39 40
18 20 20 20 19 24 25 27 27 25 28 28 30 24 20 20 23 24 21 18 15 13 11 10 11 11 11 11 10 9 8 7 8 8 8 6 7 7 8 10 11 12 13 17 21 29 36 38 40
22 22 26 24 24 27 26 29 28 29 30 28 24 20 21 24 27 23 21 16 14 14 13 12 11 11 11 11 11 10 9 11 10 9 9 9 9 9 10 10 11 12 13 14 15 17 20 23 27
26 27 27 26 24 26 30 36 31 28 25 22 23 22 23 26 24 22 19 15 13 13 14 14 13 12 11 11 13 14 13 11 11 11 12 13 14 14 14 14 15 18 20 20 21 22 24 24 26
30 28 24 22 21 20 14 7 7 9 13 18 22 23 25 24 20 17 16 15 15 15 16 15 14 14 13 13 12 14 14 13 13 12 13 15 16 18 20 20 20 21 22 23 26 27 28 29 30
23 23 19 20 19 18 18 12 10 9 11 15 18 24 25 21 18 16 16 17 16 18 18 17 16 16 17 18 16 15 14 15 15 17 19 20 22 23 23 25 26 26 28 29 30 31 32 33 35
17 15 14 11 12 7 25 22 9 15 11 13 20 22 19 18 17 18 19 20 19 19 19 16 16 16 17 17 18 18 18 23 25 28 31 33 34 34 34 34 33 32 30 30 31 34 36 37 38
16 12 2 3 3 6 9 15 26 13 12 11 15 16 16 18 19 20 23 20 19 17 17 16 16 17 18 20 23 24 27 30 35 36 35 34 34 34 35 35 35 34 34 35 34 34 37 39 42
18 22 9 6 3 4 3 9 6 8 14 14 16 18 21 20 22 23 21 18 16 16 16 15 18 19 20 26 30 34 37 37 38 38 38 38 38 36 36 35 34 34 32 33 35 37 38 38 41
15 24 25 15 16 8 10 15 16 18 20 16 16 20 24 24 22 18 16 15 14 14 15 17 23 28 33 36 38 39 40 40 41 40 41 41 40 39 36 35 34 33 34 35 35 36 37 40 42
29 17 12 15 2 5 7 11 14 10 14 16 17 18 23 24 18 16 16 15 14 16 22 27 32 35 36 37 37 38 39 40 42 43 44 45 44 41 38 36 35 36 37 38 39 39 39 40 42
25 27 20 18 17 5 3 9 5 10 12 8 11 19 19 17 17 16 17 19 22 28 32 36 37 36 36 37 38 40 42 43 44 44 45 44 41 38 37 38 39 40 41 43 45 46 48 48 46
24 28 28 28 13 12 9 33 24 27 27 20 17 19 19 18 20 22 24 28 34 38 39 38 35 35 38 39 39 40 42 42 40 39 37 37 36 38 39 40 41 43 45 46 47 47 48 50 51

GFSSGP_700_spd_027.txt.gz
Wind_Speed
12 15 12 8 4 5 9 8 9 8 7 9 9 10 11 10 11 6 7 8 7 7 7 5 4 4 6 7 7 7 6 5 5 4 4 5 6 7 9 11 11 9 7 6 5 5 4 4 3
13 13 10 4 7 10 9 8 6 7 8 7 8 9 8 11 9 11 8 7 6 6 5 5 4 3 3 5 7 7 6 5 6 7 7 7 8 10 11 12 11 10 8 6 5 4 5 5 4
12 9 5 6 5 7 6 6 5 6 8 7 6 6 9 7 5 5 6 8 8 6 4 4 2 2 1 1 3 4 5 6 6 7 7 8 9 10 11 10 10 8 7 7 7 5 4 5 4
10 8 4 4 10 11 8 8 8 7 6 6 6 3 4 4 2 0 2 3 6 6 4 3 2 1 1 2 3 4 5 6 6 6 7 7 9 9 9 8 8 7 7 6 5 5 5 4 4
7 5 3 8 9 9 9 9 7 6 4 4 4 4 3 3 2 4 2 1 3 3 2 1 1 1 3 4 5 5 6 7 8 8 8 8 9 9 10 9 9 7 8 8 7 7 6 6 5
4 4 4 8 10 8 7 5 4 4 3 2 4 6 4 4 4 4 4 4 5 4 3 3 3 4 4 5 6 7 7 8 9 9 10 10 9 10 11 10 10 10 10 9 9 9 8 7 6
3 3 4 8 9 9 6 4 1 2 1 4 6 7 5 5 6 6 8 8 8 8 6 5 5 5 6 6 7 7 8 9 10 10 11 11 11 11 13 12 12 12 11 12 11 11 10 9 8
2 2 3 6 9 8 7 5 4 4 6 7 7 6 10 8 9 10 11 12 12 10 9 8 8 8 8 8 7 7 9 10 11 11 12 13 12 12 13 14 14 14 14 13 14 13 12 11 10
2 1 2 3 6 7 7 6 6 7 10 11 12 10 8 7 9 10 11 12 14 13 11 12 12 12 12 12 13 12 11 11 12 13 14 15 15 14 14 16 16 16 15 15 15 15 15 13 13
4 3 3 3 5 6 8 7 8 10 9 12 13 11 10 9 9 9 11 11 12 13 14 15 14 15 15 15 14 15 16 16 16 16 17 17 18 17 17 18 19 18 18 18 17 17 17 16 16
4 3 3 5 7 8 8 10 11 12 12 12 9 8 8 9 9 10 10 10 12 13 14 14 14 15 15 15 16 16 17 19 20 19 20 20 20 20 20 21 21 21 21 21 20 20 20 19 18
5 5 4 5 7 9 12 13 13 11 14 10 9 8 8 9 11 12 13 13 13 14 15 16 17 19 19 17 16 17 17 19 21 22 23 23 22 23 23 23 24 24 25 25 24 23 23 23 21
6 7 8 10 11 13 15 15 14 13 13 9 9 10 11 13 13 11 12 14 15 15 15 15 15 15 17 19 21 22 22 22 23 23 24 25 26 25 25 24 25 26 27 28 28 27 27 27 26
11 11 12 12 13 14 14 16 16 11 8 11 12 12 13 14 14 15 15 15 16 16 16 16 16 15 15 17 21 22 24 25 26 26 27 27 27 26 27 28 26 26 27 28 29 30 30 30 30
13 13 14 14 14 17 14 12 10 10 13 15 15 15 16 17 15 15 15 14 14 13 14 15 17 18 16 15 18 22 24 24 25 26 27 27 28 29 27 24 24 28 29 28 28 30 31 33 33
18 18 14 9 7 7 10 12 9 12 14 17 20 19 20 19 17 16 14 14 13 15 17 15 11 10 10 12 15 18 20 21 22 23 24 24 25 25 25 27 25 24 24 30 28 31 32 33 34
17 15 17 14 12 14 13 13 12 13 17 20 21 23 22 21 19 17 17 17 16 14 12 12 11 8 7 7 9 13 16 17 18 19 19 19 19 21 21 25 29 26 29 29 24 31 30 29 33
16 16 17 18 13 12 14 17 18 21 23 24 25 24 22 23 20 18 18 17 14 13 12 10 9 8 8 10 12 13 15 16 15 14 12 12 12 13 15 16 20 22 23 22 23 25 28 27 29
18 19 21 20 18 20 22 23 24 26 29 29 27 24 24 20 18 19 21 17 14 10 8 8 9 10 9 10 12 12 10 9 8 8 7 5 4 4 4 6 7 8 9 9 10 11 12 13 16
22 21 25 22 23 25 26 30 29 28 32 30 29 26 23 17 18 20 20 17 13 11 9 9 10 9 10 10 10 9 8 9 10 8 8 7 7 7 7 9 10 10 11 13 14 15 18 20 21
26 27 27 24 24 27 30 36 32 27 26 27 28 27 22 19 20 21 19 16 13 10 9 10 11 11 11 11 10 11 11 11 12 12 10 10 9 9 10 11 13 15 17 19 21 22 22 23 24
31 27 23 22 21 18 13 9 12 15 9 12 14 16 18 20 21 23 19 16 13 12 12 13 13 15 12 11 11 12 13 12 12 11 11 11 12 15 18 21 23 24 27 29 28 30 30 30 31
29 26 22 18 16 21 24 13 6 10 13 14 15 16 18 20 23 21 20 18 15 15 16 16 15 17 15 13 13 12 11 12 12 14 18 21 25 28 31 33 33 34 34 35 36 37 36 35 34
16 16 13 13 14 6 22 21 5 8 7 12 12 15 19 20 20 19 19 18 17 17 17 18 18 16 16 15 14 15 16 20 23 27 31 34 34 33 33 33 33 34 35 35 35 36 37 39 39
20 17 4 2 3 6 11 14 25 12 11 11 13 16 18 18 19 19 21 18 18 17 18 20 19 18 16 17 17 18 23 26 31 33 34 35 35 35 36 35 33 32 34 35 36 37 38 38 38
26 26 8 7 4 3 9 11 7 13 16 16 15 16 15 17 19 22 19 19 19 19 20 21 19 18 18 18 23 27 31 34 36 35 35 35 35 36 36 34 34 34 32 32 33 34 36 37 39
23 30 25 5 5 3 9 11 14 15 15 14 16 17 17 19 20 25 26 27 22 21 22 20 20 20 23 27 30 33 35 34 34 36 37 38 39 38 37 37 35 33 31 32 31 32 32 34 36
25 15 13 13 1 4 6 14 14 15 14 12 11 13 17 21 23 26 28 24 22 23 22 20 21 26 30 33 34 33 33 34 35 37 38 39 39 40 39 39 38 37 38 37 37 38 38 38 39
32 28 16 11 10 5 2 5 6 15 9 6 10 14 20 22 25 26 25 24 24 23 23 27 31 35 37 36 37 37 36 35 36 38 39 39 39 38 38 38 38 38 38 40 40 41 41 41 41
32 33 34 24 10 14 9 15 16 13 14 15 16 15 20 22 23 23 22 22 22 25 31 35 37 38 39 37 37 36 36 37 37 38 38 37 37 37 36 36 38 39 41 42 43 42 42 43 44

GFSSGP_700_spd_030.txt.gz
Wind_Speed
13 13 9 6 5 6 7 6 9 7 8 9 10 12 10 11 9 6 7 7 7 7 6 7 6 6 8 7 6 6 5 3 2 2 4 5 5 6 7 9 11 9 9 7 5 4 5 5 4
14 12 7 3 5 9 7 8 8 8 9 8 9 9 10 11 11 11 8 7 6 6 6 5 6 5 5 6 6 6 5 4 4 5 6 7 8 8 9 10 9 8 6 6 5 5 4 4 4
12 9 5 5 6 7 7 7 8 8 8 7 7 7 7 7 6 6 5 6 5 5 5 4 4 4 4 3 3 4 5 6 6 6 6 6 8 8 8 9 8 7 6 6 6 6 5 5 4
10 8 4 3 8 9 10 10 9 8 7 7 7 3 4 3 3 2 1 3 4 4 2 3 4 4 4 4 5 5 5 5 5 6 6 7 7 8 8 9 8 7 7 6 6 6 6 6 5
10 7 3 9 9 11 10 10 9 7 5 5 4 1 1 2 4 4 2 2 1 2 1 1 2 4 5 5 6 6 7 7 7 7 7 8 9 10 9 9 8 7 8 8 7 7 7 7 7
8 7 5 7 10 10 11 8 7 5 4 2 0 1 3 3 5 4 3 2 3 3 2 2 3 4 5 6 6 6 7 8 8 9 9 9 9 10 10 11 11 10 9 9 10 9 9 8 8
6 6 8 10 12 10 10 9 7 6 3 3 4 4 2 2 4 6 6 6 5 6 6 5 4 5 6 7 8 8 9 9 10 10 11 11 12 12 12 12 13 12 12 13 13 13 12 11 10
6 6 7 11 12 12 10 9 6 6 6 6 5 5 5 6 7 9 10 10 10 9 8 8 7 8 8 8 8 9 10 11 11 11 12 12 13 14 13 15 15 15 15 15 16 15 15 14 13
5 5 7 8 12 11 11 9 8 7 8 8 7 7 6 7 7 9 10 10 10 10 10 10 11 11 12 12 13 13 13 13 14 14 15 15 15 16 15 16 17 17 17 18 18 17 17 16 16
6 6 7 8 10 11 11 11 9 9 9 11 10 8 7 5 5 6 7 9 10 10 10 12 13 14 14 15 16 17 18 17 17 18 18 19 19 18 18 17 19 20 20 20 20 20 19 19 18
7 8 8 8 9 10 11 11 11 11 11 12 12 9 6 5 5 6 7 9 10 11 12 13 14 14 14 15 16 17 20 20 20 21 22 23 22 22 22 22 22 22 22 22 22 22 22 23 22
7 8 8 8 8 9 12 12 13 13 14 12 11 8 7 6 8 9 10 10 10 12 13 14 15 17 18 17 18 19 19 21 22 23 24 24 25 25 25 25 25 26 26 26 24 24 24 25 25
8 9 9 9 11 13 14 14 17 15 14 13 11 10 9 8 9 10 11 13 14 14 14 14 14 15 17 19 20 21 22 23 24 24 24 25 26 26 28 27 30 29 28 28 28 29 28 27 28
9 11 11 12 14 16 17 17 18 16 14 12 13 13 12 11 11 11 12 12 13 13 13 13 14 16 17 20 21 23 25 24 24 25 25 26 27 28 28 28 29 31 31 31 30 30 31 30 31
13 14 14 12 14 18 19 22 18 15 13 14 15 15 14 14 14 14 13 12 11 12 12 13 14 15 17 18 20 19 21 23 23 24 24 25 26 27 27 27 28 28 29 31 32 32 31 31 31
15 17 15 11 11 13 13 11 11 12 13 16 18 18 17 17 18 16 14 14 13 14 16 15 14 13 11 12 15 17 18 20 21 22 23 24 24 25 24 25 25 25 27 28 25 27 28 31 32
17 12 16 15 14 14 15 12 13 15 15 18 19 20 20 21 20 18 17 15 14 15 14 14 14 12 10 9 10 12 15 17 19 20 20 21 20 19 19 21 18 23 16 28 22 29 31 33 36
11 15 19 18 13 14 18 19 18 17 18 20 22 22 24 24 21 21 20 17 15 14 13 11 11 11 12 12 11 12 14 16 16 16 16 14 13 12 12 12 12 15 15 17 15 15 12 12 13
19 21 22 22 18 19 20 22 21 24 25 26 28 29 28 25 22 20 18 16 15 12 13 12 10 11 11 11 12 12 13 14 13 10 9 8 7 7 6 6 6 6 6 8 9 11 15 16 17
24 23 25 24 23 23 25 29 27 30 31 32 31 30 28 26 23 18 17 16 15 13 13 11 10 11 11 12 12 12 13 12 11 11 10 9 8 8 8 8 9 10 11 13 15 17 19 21 22
27 26 26 24 25 27 28 33 31 30 30 29 30 31 29 26 22 18 18 17 15 14 12 11 10 11 11 10 11 12 12 11 11 11 11 10 10 10 10 12 14 17 19 22 24 26 28 30 32
28 29 27 26 23 16 13 10 16 20 19 18 13 14 16 18 18 19 18 16 15 14 13 12 11 12 13 13 13 14 13 12 12 12 12 12 14 15 19 24 28 31 33 35 35 36 36 36 37
29 27 25 23 23 23 20 12 16 17 17 15 16 15 15 16 18 19 19 18 16 16 15 13 13 14 15 17 17 16 15 15 15 16 17 20 23 26 30 33 36 37 37 37 38 38 39 40 39
26 20 19 14 14 12 25 21 10 18 16 17 18 18 17 16 18 19 20 19 18 18 18 17 17 18 19 19 20 17 16 18 20 22 25 28 31 34 36 37 38 38 39 38 38 39 40 41 42
23 16 5 5 6 6 11 15 19 13 15 16 18 18 17 18 18 19 19 18 19 19 19 20 20 21 21 21 21 20 21 22 24 28 32 35 36 37 36 36 37 37 37 37 37 37 38 39 41
29 23 9 7 6 2 11 10 11 24 21 18 17 18 19 18 17 18 17 17 18 20 22 22 23 24 22 24 25 25 25 28 31 34 37 37 37 37 37 37 37 36 35 35 34 33 34 35 37
25 31 27 7 7 3 10 14 13 17 22 20 20 22 22 18 19 20 20 20 23 23 25 25 26 26 25 26 26 26 29 32 37 39 39 37 38 38 38 38 37 36 36 35 34 33 34 35 36
26 23 16 14 5 6 7 10 15 24 24 24 25 22 21 21 21 20 20 23 24 28 29 28 29 26 25 25 28 32 36 37 37 37 36 38 39 39 38 37 37 37 37 37 37 37 38 39 39
33 27 21 16 18 4 4 7 6 19 19 23 21 21 19 18 18 21 22 23 25 28 29 30 28 26 27 32 37 39 39 37 36 36 37 38 38 38 38 37 37 37 37 37 37 38 39 40 40
39 33 42 22 11 18 15 15 12 16 25 24 20 19 19 19 18 20 22 23 25 27 28 27 28 30 36 41 41 38 36 34 36 36 36 37 38 38 37 37 36 36 37 38 40 40 40 40 41

GFSSGP_700_spd_033.txt.gz
Wind_Speed
10 10 7 5 2 5 6 4 5 4 4 9 8 10 10 7 5 6 5 5 6 6 7 7 7 7 7 7 7 7 6 4 2 1 2 4 5 6 7 9 10 9 8 7 8 8 8 6 5
12 10 6 5 3 8 7 6 5 5 7 8 8 12 7 10 10 10 8 6 6 5 6 6 7 7 6 6 6 7 6 4 3 3 4 6 7 8 8 9 8 7 8 7 6 6 7 7 7
12 8 4 1 3 5 6 7 6 7 6 7 5 8 6 6 5 7 6 5 5 5 4 4 5 6 5 5 4 3 3 4 4 5 6 6 6 6 7 7 7 6 6 7 7 6 6 7 7
9 6 2 1 4 4 5 7 7 7 5 5 7 1 1 3 3 3 4 4 3 3 3 4 5 5 5 4 4 4 4 4 4 5 6 7 8 7 7 7 5 6 6 6 7 8 8 7 7
8 4 2 4 4 5 9 9 9 5 4 4 4 2 4 3 4 4 2 2 1 1 1 3 4 6 7 7 7 6 6 6 7 7 8 9 9 9 9 10 9 9 9 8 7 8 8 9 9
7 5 4 6 6 8 8 10 8 6 6 4 1 2 5 5 5 4 3 1 2 2 2 3 4 5 6 7 8 8 8 8 8 8 9 10 11 11 11 11 11 10 11 12 11 11 11 11 10
8 6 6 6 9 9 9 9 6 6 4 5 2 1 5 4 4 4 5 5 5 5 5 4 4 5 6 7 8 8 9 10 10 11 10 11 11 12 11 13 13 13 13 14 14 13 13 13 12
7 7 8 8 11 9 13 11 10 8 9 6 5 2 6 6 6 7 8 9 8 8 7 7 8 8 7 8 9 10 10 11 11 12 12 13 15 16 15 15 15 15 15 15 15 15 15 15 14
6 5 8 8 10 10 12 12 12 9 10 9 7 7 8 8 8 9 9 10 9 9 9 9 10 11 11 12 12 13 14 14 14 14 14 15 16 17 18 17 17 18 19 18 17 18 18 18 17
7 6 8 11 10 9 13 13 13 10 10 12 9 8 8 8 7 7 8 9 9 9 9 10 12 13 14 15 16 16 16 17 18 17 16 17 16 15 17 19 18 20 21 21 21 22 22 21 20
10 7 14 13 14 14 15 14 13 11 11 12 13 9 8 8 8 7 7 8 9 10 10 11 11 12 13 14 15 17 18 18 18 20 19 18 21 20 22 23 23 23 23 24 23 24 24 24 24
10 13 12 13 12 13 14 17 14 14 16 14 13 12 11 10 9 8 9 10 11 11 11 12 14 14 14 16 16 19 20 20 20 22 23 19 17 16 22 25 27 27 27 27 26 26 26 25 27
12 13 12 12 11 12 14 15 18 18 17 16 15 15 13 11 10 10 11 12 13 14 15 15 15 15 16 18 18 19 22 21 21 21 21 22 22 19 21 26 26 26 29 29 28 29 28 28 28
11 12 14 14 15 16 16 18 21 19 17 18 19 17 14 14 13 12 13 14 15 16 15 14 14 15 16 18 20 20 21 23 23 21 21 22 24 26 27 26 28 28 30 29 28 29 30 30 30
15 15 16 18 18 18 16 21 22 22 20 21 18 17 17 16 15 14 14 15 15 14 13 13 14 15 16 17 18 19 19 20 22 22 21 23 23 24 25 25 25 24 25 27 28 28 26 29 29
14 15 12 14 17 19 15 14 16 13 17 18 18 19 19 18 18 17 17 16 16 15 15 15 15 14 13 13 12 13 15 17 18 19 20 22 23 24 25 24 24 22 20 19 26 28 22 28 29
16 14 11 10 13 17 18 10 18 15 17 18 21 22 21 21 21 21 19 18 17 17 16 15 14 14 14 13 12 10 11 12 14 16 18 19 21 21 20 20 20 20 19 22 19 26 24 27 24
13 15 13 14 13 15 19 21 24 19 18 20 22 24 25 25 24 23 22 20 20 17 15 14 13 13 14 13 12 13 14 15 16 18 18 17 16 14 13 13 12 12 14 16 16 14 10 11 12
18 15 17 14 20 20 22 24 20 25 25 27 28 30 30 29 27 25 23 21 19 16 15 13 12 12 12 12 12 13 14 15 16 17 15 14 15 13 10 8 8 8 9 10 12 13 15 17 18
22 21 23 18 24 24 25 29 30 28 35 31 33 36 34 31 30 26 22 20 19 18 17 15 15 14 12 11 12 13 14 15 16 14 15 15 13 13 14 13 11 11 13 14 17 20 24 27 28
26 23 22 19 21 24 27 35 36 32 35 41 37 37 36 34 32 28 24 22 21 18 17 15 15 15 13 12 12 14 15 16 16 15 15 16 15 15 15 15 16 18 21 24 28 31 33 35 37
22 21 24 25 17 19 13 15 18 15 25 27 27 30 30 32 31 28 25 22 20 18 17 16 17 16 13 11 12 15 17 18 18 18 17 17 17 18 19 21 24 27 29 34 37 38 39 40 40
22 23 25 24 21 20 24 16 23 21 31 31 29 26 24 22 22 22 23 22 20 19 17 16 17 16 15 13 13 16 17 18 20 21 20 21 22 24 26 29 31 34 38 40 42 43 43 43 43
26 23 22 21 13 13 26 26 18 22 21 21 23 24 22 19 16 17 18 19 19 18 17 17 17 17 16 16 17 19 20 22 23 24 25 27 28 30 31 34 36 39 41 42 42 42 43 43 44
25 15 6 6 7 8 12 20 27 14 21 21 23 23 21 19 17 17 17 18 18 17 17 17 18 19 20 20 22 23 24 24 25 27 29 30 32 34 37 39 39 40 41 41 41 40 41 41 42
23 25 11 6 6 4 11 12 13 22 31 23 19 22 21 21 20 19 19 18 18 18 18 19 20 22 23 24 25 26 27 28 29 30 32 34 36 39 41 41 41 40 40 40 40 40 39 39 38
15 27 26 17 17 5 12 15 18 18 22 30 26 25 21 20 19 19 18 18 18 18 20 22 24 24 26 29 29 30 29 30 32 34 36 38 40 41 40 40 41 40 41 40 40 39 39 38 37
26 15 14 15 5 8 13 21 21 18 29 31 30 29 24 23 22 22 21 21 20 22 24 26 27 30 31 32 32 31 32 32 34 38 38 39 39 39 40 41 41 41 40 40 40 40 39 38 40
33 26 19 17 20 5 6 14 17 25 19 29 31 29 27 25 24 23 24 24 26 28 28 29 31 33 33 33 33 32 33 36 39 40 39 39 38 38 39 41 41 41 41 41 40 39 40 41 40
30 27 34 20 9 19 19 30 16 12 23 26 32 32 32 29 26 27 26 27 26 26 27 28 32 34 34 34 34 35 38 40 39 38 37 38 38 38 39 41 42 41 41 40 40 41 40 39 38

GFSSGP_700_spd_036.txt.gz
Wind_Speed
9 8 7 8 7 7 8 6 6 6 2 9 8 10 6 8 7 6 7 6 5 7 7 9 9 7 6 5 5 4 3 2 1 1 2 4 5 5 6 7 7 6 6 7 6 6 6 6 6
10 7 8 8 3 12 8 7 7 6 8 11 14 11 4 12 12 9 9 7 6 6 7 8 8 8 7 6 4 3 2 1 2 3 5 5 6 7 7 7 6 7 8 8 8 8 7 6 6
10 7 5 3 5 12 10 6 6 6 6 8 6 11 5 7 6 8 8 6 5 4 6 7 8 9 9 7 6 5 4 3 2 3 4 6 6 6 7 8 8 8 8 8 8 8 9 9 8
8 6 7 3 3 9 6 8 5 6 5 4 7 2 2 3 3 4 4 4 4 2 3 2 4 5 6 7 8 7 6 4 3 3 3 4 5 6 7 6 8 8 8 9 9 9 9 9 9
7 5 3 1 3 8 11 9 11 5 3 5 8 4 1 0 1 2 2 3 3 3 3 1 1 2 3 4 4 4 4 4 5 5 6 5 5 5 6 6 6 8 8 8 9 9 10 10 10
7 3 3 4 6 6 7 8 9 6 4 5 3 4 2 2 1 3 3 2 1 1 1 1 1 2 3 4 5 5 6 6 6 6 7 8 7 8 7 8 9 10 11 10 10 10 11 11 11
8 6 3 1 7 6 8 8 6 6 5 5 3 6 2 1 1 4 5 4 3 4 3 3 3 4 4 5 6 7 8 8 8 8 9 9 10 12 13 12 12 11 12 13 13 14 14 14 13
7 6 5 5 8 6 13 10 10 9 10 5 4 4 1 3 4 6 7 8 8 8 7 5 6 6 6 6 6 7 8 10 10 10 11 12 13 15 15 14 14 14 14 14 15 15 15 15 16
5 5 4 5 6 10 14 11 11 8 10 7 6 7 8 6 7 8 9 9 9 8 8 8 8 8 8 8 8 10 10 10 11 12 12 13 15 17 17 17 15 15 16 17 16 18 18 18 18
6 6 5 11 11 9 15 11 12 11 10 10 9 8 8 8 8 8 9 7 8 9 9 8 9 10 12 13 13 12 13 14 14 13 14 13 11 14 16 16 17 17 18 19 20 19 20 21 20
8 8 12 14 16 15 15 13 14 10 9 11 9 7 10 10 9 7 7 8 8 9 9 9 10 11 12 12 13 13 13 14 17 17 15 11 14 17 21 21 22 21 21 21 23 22 21 20 21
10 12 15 16 12 14 15 15 13 14 16 15 15 12 12 12 11 10 10 9 9 8 9 9 10 11 13 14 15 16 17 17 18 17 17 16 15 17 19 20 21 21 22 23 23 23 22 23 23
11 16 13 14 13 14 15 15 16 18 18 16 18 17 15 14 14 12 11 11 12 12 11 12 12 13 13 14 14 16 16 18 17 16 16 15 17 19 20 24 28 28 29 27 26 26 26 24 24
14 12 13 13 13 14 15 17 21 17 20 18 21 19 19 17 16 14 13 13 14 14 13 12 12 11 11 13 14 15 16 16 16 17 17 17 18 20 21 24 25 26 25 24 25 26 27 25 25
15 15 15 15 15 19 18 22 23 18 21 20 21 22 21 20 17 15 15 16 16 15 14 12 12 11 11 12 13 14 15 16 15 14 15 17 18 21 23 23 24 24 23 23 20 24 20 21 25
14 15 14 14 15 17 19 24 19 17 16 19 23 21 21 20 19 18 18 18 17 16 15 14 13 13 11 11 10 10 10 10 10 10 13 15 15 17 19 21 21 21 20 21 22 20 23 20 26
15 16 11 13 13 16 15 13 13 17 18 20 21 22 21 21 20 21 21 21 20 18 16 15 14 13 12 11 10 10 9 9 9 9 12 14 17 18 19 19 18 18 18 17 17 19 16 14 9
9 16 15 16 15 17 19 22 23 23 23 23 22 25 25 24 24 24 24 23 22 20 19 17 16 15 14 12 11 9 8 9 10 11 14 15 15 15 15 15 16 17 15 14 13 13 13 12 11
20 20 15 14 14 21 26 28 25 25 26 26 28 30 28 29 28 29 27 26 24 21 20 18 17 16 15 13 10 9 8 9 11 13 15 15 14 16 16 16 16 15 14 14 14 15 15 17 18
21 22 25 24 22 26 29 33 30 29 36 35 32 34 35 35 33 33 31 28 25 22 19 18 17 16 15 14 12 10 9 11 12 13 15 15 15 16 16 16 17 17 17 17 19 20 21 23 26
26 25 23 21 21 25 29 40 38 34 33 38 39 38 42 42 37 35 33 30 26 23 21 19 17 16 16 16 14 13 12 11 13 14 16 17 17 19 17 17 19 20 21 22 24 26 29 32 35
24 22 20 22 22 14 11 12 24 21 25 26 31 33 37 37 34 33 33 31 28 24 22 19 17 18 18 19 17 14 13 12 13 17 19 20 20 21 20 21 22 24 27 29 31 35 38 41 43
25 24 20 23 25 23 29 20 35 22 21 31 34 35 34 29 27 27 31 31 29 24 21 18 18 19 20 19 17 15 13 14 17 19 20 21 23 24 25 26 28 30 32 34 37 40 42 43 44
29 24 20 22 22 11 29 29 18 30 28 28 28 28 31 32 27 26 26 27 26 23 22 19 18 17 19 19 18 16 16 17 20 22 23 25 26 26 29 31 33 35 37 40 41 42 42 42 41
23 20 3 3 4 8 9 20 35 9 17 20 22 22 25 26 27 25 23 22 22 21 18 17 16 17 18 18 18 18 21 22 24 25 26 28 29 30 32 34 36 38 40 42 41 41 40 41 40
26 29 12 6 4 4 11 14 19 18 28 28 24 23 26 28 27 23 23 21 19 16 15 15 16 17 18 19 21 23 24 26 27 28 30 32 32 33 35 37 40 44 44 42 42 42 41 41 42
20 28 28 16 18 8 15 26 30 24 23 27 26 28 26 26 25 24 22 19 17 15 15 17 18 20 21 23 24 25 27 29 29 31 33 34 34 36 39 42 44 44 42 41 41 41 42 41 41
26 15 16 19 2 6 9 25 25 11 15 27 28 27 28 27 27 25 23 21 19 17 17 19 21 23 25 26 27 29 30 30 32 34 35 36 37 39 42 43 42 41 41 42 42 42 42 42 42
37 26 14 13 15 4 4 12 15 21 20 21 25 27 29 28 27 25 24 22 20 18 20 23 27 28 29 30 30 31 32 33 35 36 36 38 40 42 42 40 39 40 42 42 42 43 42 42 42
31 30 38 24 11 26 22 45 28 18 14 19 21 27 32 32 29 29 27 26 23 24 26 29 29 29 30 32 33 34 35 36 37 37 39 42 42 41 38 38 40 41 42 42 42 41 41 41 40

GFSSGP_700_spd_042.txt.gz
Wind_Speed
15 15 9 5 5 7 12 8 9 10 13 10 12 9 8 3 3 3 11 10 10 10 11 12 11 11 10 9 7 6 5 5 3 2 1 2 2 3 4 7 7 8 9 10 11 11 11 11 11
15 12 9 7 10 14 11 9 8 6 10 9 10 10 7 6 6 9 12 9 10 8 8 10 10 9 9 8 7 6 5 4 3 2 0 2 4 5 6 6 6 7 8 9 9 9 10 10 11
13 12 8 4 8 6 11 9 6 9 8 6 10 9 9 9 9 9 11 9 9 9 8 7 9 9 9 8 7 6 5 4 2 0 1 2 3 3 4 5 5 5 5 5 6 7 7 8 9
12 8 7 6 8 7 6 8 8 10 9 5 6 5 7 8 8 8 9 9 8 8 8 7 7 7 7 8 7 6 4 2 1 2 2 3 4 3 2 2 3 2 2 3 3 4 5 6 7
12 9 7 5 4 9 9 7 9 8 9 8 6 6 6 6 7 6 7 8 7 6 8 8 8 8 7 6 4 4 3 3 2 2 3 3 3 2 2 2 3 3 4 4 4 4 5 5 6
10 8 8 7 9 8 6 5 8 6 7 7 5 6 6 6 8 8 7 7 6 5 5 5 6 7 7 7 6 5 5 5 4 3 4 6 4 4 5 6 6 6 6 7 7 7 8 7 7
8 7 5 2 11 11 8 10 9 6 6 6 4 4 4 6 7 8 8 6 5 4 4 5 6 6 7 7 7 7 7 6 5 5 6 7 8 11 11 11 11 11 10 10 9 10 11 11 11
8 9 4 5 8 6 5 11 11 9 9 7 4 1 4 5 5 6 7 7 6 6 6 6 6 7 7 6 5 6 6 7 7 7 7 8 9 11 14 13 12 10 11 12 14 15 14 14 15
7 7 8 5 10 6 5 6 9 10 9 10 7 6 5 4 5 5 6 7 8 8 8 8 8 8 8 8 8 8 9 9 9 10 10 10 11 12 12 13 14 14 14 13 13 17 18 18 18
8 8 9 7 8 7 6 8 10 13 13 12 11 9 8 6 7 7 7 8 8 8 8 9 9 10 10 10 11 11 11 12 13 12 12 12 11 11 13 11 14 16 16 16 16 14 15 17 19
8 7 7 6 7 7 10 12 13 14 17 14 11 10 9 7 7 7 9 10 7 7 8 8 9 10 10 11 12 12 11 11 10 10 11 11 11 13 13 13 12 14 13 13 13 12 10 11 14
7 7 8 9 11 13 15 16 16 15 14 13 14 12 10 10 9 8 9 9 9 9 10 11 11 12 12 12 13 11 11 11 11 12 11 11 11 12 13 13 13 14 15 15 16 15 14 12 12
8 8 9 10 12 14 15 15 16 16 13 14 14 14 14 14 13 11 12 12 11 11 12 12 13 14 14 15 15 14 15 15 14 13 13 13 13 13 13 13 13 12 13 14 15 15 15 14 14
10 11 12 10 11 13 15 16 18 14 13 13 15 16 17 17 17 15 14 14 13 13 13 13 14 14 15 15 16 16 16 17 17 17 15 14 13 12 13 13 12 12 13 14 15 15 15 14 13
10 11 13 11 12 14 15 20 18 15 16 18 17 18 19 19 18 17 18 18 17 15 14 14 14 14 14 15 16 17 18 18 17 17 14 14 13 13 12 11 11 12 12 11 11 11 11 11 10
13 14 16 12 12 16 17 24 16 17 17 17 18 17 17 20 21 22 22 21 20 19 17 16 15 15 15 17 17 18 18 18 17 15 15 14 13 11 11 11 11 10 9 9 9 8 7 8 8
15 16 16 15 14 16 17 21 14 12 14 15 18 18 19 20 19 21 21 22 22 21 20 18 17 18 19 19 19 18 17 16 15 16 15 13 12 11 11 11 9 8 10 11 11 13 12 11 9
15 16 17 17 14 15 20 24 19 20 20 19 20 21 22 22 20 22 24 24 25 25 23 22 20 20 21 21 20 19 17 15 15 14 12 12 11 11 11 10 9 10 11 12 11 11 10 10 13
19 19 19 17 15 20 22 25 22 21 26 27 27 27 27 26 25 27 26 27 29 28 27 25 23 23 23 23 22 20 18 16 15 13 12 13 12 11 11 11 12 13 13 11 10 12 13 15 17
22 23 27 25 24 28 30 35 32 32 35 33 31 30 29 30 31 32 31 31 31 31 30 28 27 25 25 25 23 22 20 19 19 18 16 15 13 12 12 13 15 15 14 13 14 15 17 19 21
24 26 26 25 24 28 30 41 37 35 36 36 35 32 32 33 33 35 36 34 34 33 32 31 29 26 25 24 24 23 22 22 22 19 17 15 15 14 15 17 16 16 17 17 17 19 21 23 26
26 23 23 25 26 27 22 17 33 37 39 36 33 32 33 35 35 36 36 37 37 36 37 35 32 28 26 25 25 24 23 22 22 21 19 18 17 16 18 19 19 19 20 22 22 24 25 27 29
28 24 22 24 28 28 33 20 34 30 40 37 30 22 23 28 32 34 33 32 32 34 33 35 33 29 27 27 27 26 26 26 26 23 20 19 19 19 21 22 21 22 25 25 25 27 29 31 34
27 25 23 23 22 13 38 27 30 35 35 31 19 21 18 19 24 29 31 32 33 32 32 33 33 31 29 29 28 27 26 26 26 23 21 21 21 22 24 25 25 26 28 28 29 31 32 35 39
25 21 6 4 4 9 21 23 40 35 36 29 20 24 28 26 26 27 28 29 29 29 30 31 32 32 30 30 28 27 27 27 26 24 23 23 24 25 27 28 28 29 30 31 31 32 35 39 44
30 34 16 7 5 5 9 15 18 13 20 31 32 28 26 29 25 26 24 25 25 28 31 33 32 32 32 30 28 28 28 27 26 26 26 26 27 28 30 30 30 31 32 33 33 35 39 44 42
30 39 36 30 18 9 20 40 46 43 40 17 24 24 23 27 25 25 24 23 26 30 31 30 31 31 31 30 28 28 28 27 27 27 28 29 30 31 31 31 32 32 34 33 35 39 42 39 38
38 23 18 22 2 6 10 21 25 14 17 6 15 11 19 23 23 22 23 24 27 28 30 30 32 31 29 29 29 28 28 28 29 30 30 31 33 33 32 33 33 34 34 35 38 40 38 37 39
34 39 24 20 21 5 2 11 16 8 6 12 11 15 18 20 20 19 20 25 27 30 30 31 31 31 31 30 29 29 29 30 31 32 33 34 34 35 35 34 34 34 33 37 39 37 37 39 40
39 39 45 20 11 23 26 41 30 26 31 20 15 15 20 27 27 26 22 23 26 29 32 32 33 33 32 30 29 28 30 31 33 34 35 36 36 36 36 35 36 34 35 39 38 36 39 40 40

GFSSGP_700_spd_045.txt.gz
Wind_Speed
16 12 8 9 4 5 12 7 9 12 13 9 11 6 6 2 3 3 8 8 9 11 11 10 9 8 7 6 5 4 3 2 0 2 2 3 2 3 4 6 7 8 10 10 10 11 11 12 13
16 9 5 5 5 12 8 10 9 11 13 9 11 9 9 6 3 8 9 8 9 9 9 9 9 8 8 7 6 4 3 2 1 2 2 1 2 2 4 5 6 7 8 8 9 10 10 11 12
15 10 7 4 6 4 9 10 6 9 11 8 9 10 8 7 11 10 9 9 8 9 9 9 9 8 8 7 6 5 4 3 2 1 0 1 2 3 3 4 5 5 6 6 7 8 9 11 11
14 9 5 4 6 5 7 6 6 9 7 8 7 5 7 7 10 10 9 9 9 9 9 9 9 8 8 7 6 5 4 3 1 1 2 3 3 3 3 4 5 6 6 7 8 8 9 9 9
14 9 4 7 6 7 8 6 6 5 4 4 5 5 5 8 10 10 9 7 8 8 7 7 7 7 6 6 5 4 3 2 1 2 3 3 3 3 4 5 6 6 7 7 8 8 9 10 10
12 9 7 7 7 8 7 7 9 8 7 6 4 5 5 7 8 10 9 8 7 7 6 6 7 7 8 7 6 5 4 3 3 2 2 3 5 5 5 6 6 6 6 6 7 8 9 9 9
10 9 8 5 7 7 7 7 9 6 7 7 5 5 5 5 6 7 7 7 6 6 6 6 6 7 7 7 6 6 6 5 5 4 4 4 5 5 6 6 6 7 7 6 6 8 9 9 9
11 10 8 7 10 6 7 8 9 8 8 8 7 5 4 4 4 5 6 7 6 5 5 5 6 7 7 6 7 7 7 7 7 7 6 6 7 8 8 6 7 6 7 7 8 8 9 9 10
10 10 11 10 12 9 7 8 10 10 10 9 9 6 5 4 5 5 6 6 7 7 7 8 8 9 9 9 9 9 9 9 9 8 8 9 10 9 6 7 6 6 4 3 6 7 7 8 8
10 11 10 9 9 9 7 7 8 11 12 13 12 9 8 7 7 6 7 7 8 9 9 9 10 10 11 11 11 12 11 11 10 10 9 10 10 10 9 8 7 7 8 8 8 6 8 11 11
9 9 10 10 8 9 9 11 11 13 14 13 12 12 11 10 8 8 9 9 9 10 10 11 11 11 12 13 14 14 14 13 11 11 11 10 10 11 11 9 9 10 11 12 12 12 11 10 11
8 9 10 10 11 11 11 13 16 16 14 13 17 15 12 11 10 9 10 11 11 11 11 11 12 13 14 14 15 14 14 14 14 13 13 12 12 12 11 9 9 11 11 12 12 13 12 11 11
9 9 10 11 12 13 15 16 17 16 14 15 16 16 15 14 12 11 12 13 13 13 13 12 13 14 15 15 16 16 16 17 16 16 16 15 14 11 10 13 10 10 11 11 11 12 12 12 11
9 10 11 11 13 13 15 16 18 13 13 15 15 15 16 17 16 15 14 14 15 16 15 15 15 15 16 17 19 18 19 19 18 18 18 16 15 14 14 13 10 9 10 9 10 10 11 11 10
12 11 12 13 14 15 15 21 18 13 15 16 16 17 18 18 19 17 17 16 17 18 18 16 17 17 17 18 19 19 20 19 19 19 18 18 17 16 15 12 11 10 11 10 10 10 10 8 7
12 13 15 13 12 15 17 25 14 14 16 17 18 18 19 19 17 20 20 19 19 20 20 19 18 18 18 19 19 20 20 19 19 19 18 19 18 16 14 12 12 12 12 10 9 10 9 7 9
13 14 15 14 14 17 18 23 13 12 15 16 17 18 18 19 20 18 18 20 21 23 23 22 20 19 19 20 21 21 21 20 19 18 18 18 16 15 15 15 15 13 12 10 9 10 9 9 9
14 15 16 16 16 17 21 26 21 21 21 19 21 20 21 21 19 20 21 22 23 25 26 25 23 21 21 21 22 24 23 22 21 20 20 17 17 17 16 16 15 13 12 10 10 11 11 10 11
17 20 22 21 17 21 25 29 23 22 26 25 24 23 24 25 22 26 27 27 27 27 28 27 26 24 23 22 23 24 24 23 22 23 23 21 20 18 16 16 16 14 12 12 13 12 12 13 14
20 23 26 24 24 28 31 36 33 31 32 31 30 30 29 28 28 28 29 30 30 29 31 31 29 28 26 24 25 26 26 25 24 24 24 22 19 17 16 17 17 15 15 15 15 15 15 16 18
22 25 24 24 25 28 31 43 39 34 35 32 33 32 33 32 31 31 34 33 35 34 32 32 33 31 30 28 27 28 28 27 26 25 26 24 21 19 17 17 18 18 18 18 17 18 18 19 21
29 24 23 23 24 23 20 15 36 38 37 35 32 34 30 27 30 32 35 36 34 34 35 35 36 35 33 31 29 29 27 26 25 25 28 25 23 21 18 19 20 21 21 20 19 20 22 24 25
29 24 22 21 23 26 34 20 30 25 36 39 31 23 23 24 22 22 28 34 32 34 35 36 37 36 36 34 31 30 29 29 29 28 30 28 25 22 20 21 23 24 23 22 22 23 25 28 29
23 20 19 22 20 11 35 26 37 35 36 31 24 22 18 20 18 23 25 27 31 34 36 36 35 35 36 36 33 31 31 30 29 29 30 29 26 23 22 23 25 27 26 25 26 26 29 32 31
24 20 4 4 3 10 13 18 45 28 34 35 17 12 15 25 25 26 26 25 27 32 34 34 34 33 32 34 33 33 33 32 30 29 30 29 27 25 23 25 28 29 28 29 29 30 33 34 34
28 34 17 7 4 5 10 14 18 13 18 29 40 26 19 21 24 27 29 25 24 28 30 30 30 30 31 31 33 34 34 33 32 31 31 31 29 28 28 29 29 30 30 31 32 33 35 35 35
29 34 33 29 24 12 21 40 46 42 31 26 14 12 10 16 19 22 23 24 22 22 26 27 29 30 32 33 34 35 35 34 32 31 32 32 32 31 31 30 30 31 32 33 34 34 36 36 36
35 19 17 18 2 5 11 21 27 24 21 14 9 3 10 13 17 17 17 19 19 21 22 27 30 32 33 32 34 35 36 34 32 32 33 33 33 32 32 32 33 33 34 35 35 35 37 36 35
32 39 22 14 19 5 3 18 24 18 11 12 6 19 11 15 16 25 25 19 18 21 23 25 28 30 32 32 35 36 36 35 34 33 34 34 34 34 35 35 35 35 36 36 36 37 37 35 34
34 39 43 20 10 20 26 45 18 14 17 21 20 13 11 17 29 30 31 27 22 20 23 25 28 31 32 34 36 36 37 36 35 35 36 36 36 37 37 36 36 36 37 37 37 37 36 36 35

GFSSGP_700_spd_048.txt.gz
Wind_Speed
15 11 8 10 4 3 12 9 10 10 7 4 8 4 3 1 2 2 5 4 3 7 10 9 8 9 9 7 5 3 2 2 4 5 7 7 7 7 8 10 10 11 12 12 13 14 13 12 12
13 9 7 8 4 10 9 11 11 11 10 5 6 6 4 4 5 3 6 6 7 7 8 9 9 9 8 7 5 3 1 2 3 5 5 5 6 6 7 8 9 10 10 10 10 11 10 11 11
14 8 5 4 5 4 8 12 10 11 11 11 9 9 8 5 5 7 7 7 6 8 10 9 8 8 7 6 5 3 2 0 2 3 5 5 5 5 5 6 7 7 7 8 10 10 11 11 12
14 8 3 3 6 4 6 8 9 9 9 7 7 6 6 6 7 8 8 8 7 6 8 9 8 7 6 6 4 2 0 2 3 5 5 5 4 5 5 5 5 5 5 6 7 8 8 8 9
14 8 5 6 6 6 7 6 7 8 6 6 6 3 6 8 8 9 9 8 7 6 6 6 6 6 7 6 4 3 2 1 1 2 4 4 5 5 4 4 5 5 5 5 6 7 7 8 8
14 11 6 7 6 8 5 5 6 6 4 5 4 4 4 7 8 8 8 8 8 8 7 6 6 6 5 4 4 4 3 3 2 2 1 1 2 3 4 5 5 4 5 4 4 4 5 6 7
13 12 8 7 7 7 5 5 6 4 4 5 3 4 3 5 6 6 6 6 7 7 6 6 6 5 5 5 5 5 4 5 5 4 4 2 2 3 4 3 2 2 3 4 5 5 5 5 4
12 11 9 7 9 7 4 6 7 8 6 7 6 3 3 4 4 5 6 6 6 6 6 6 6 7 7 8 7 8 8 6 6 6 4 4 4 4 3 1 2 3 4 3 3 4 4 5 6
14 12 12 8 9 8 5 4 7 8 8 7 8 6 4 4 4 5 5 6 6 7 6 7 7 7 8 9 9 9 9 9 8 7 8 8 7 7 4 4 3 2 2 4 6 6 6 6 6
12 13 10 10 8 9 7 6 7 8 8 10 10 9 7 6 5 6 6 7 8 8 8 8 9 9 10 10 11 12 11 11 10 10 10 10 9 8 7 6 5 5 5 4 4 5 7 9 9
11 11 10 9 9 11 11 10 10 11 12 8 9 11 11 10 9 8 8 8 9 9 10 10 11 11 12 12 13 13 13 12 12 13 13 12 11 11 8 7 6 5 6 6 6 5 5 5 6
9 10 9 9 9 10 11 13 14 15 12 12 13 15 14 11 11 10 10 10 11 11 11 11 11 12 12 12 13 13 14 13 13 15 15 14 13 13 11 9 7 6 7 7 8 8 7 7 7
9 9 9 10 11 13 14 15 17 16 15 15 15 15 14 15 14 13 12 12 12 12 13 13 13 13 13 14 14 15 15 15 15 16 16 16 15 12 12 13 8 8 8 8 9 10 9 9 9
8 10 10 11 13 14 15 17 17 12 13 16 15 15 15 16 16 17 14 13 14 15 15 15 15 14 14 16 16 17 17 17 17 17 18 17 16 16 14 11 14 12 11 11 11 10 9 8 8
11 11 12 13 13 15 16 21 16 10 14 16 14 15 16 16 18 16 17 18 19 18 18 17 17 17 16 17 18 18 18 19 19 18 18 18 18 17 15 14 14 15 15 14 12 10 11 11 9
10 11 13 11 11 14 16 23 14 14 15 15 17 18 19 19 18 20 20 20 20 20 19 21 21 20 18 18 19 19 19 20 19 19 19 18 18 18 17 16 16 17 16 14 12 11 11 10 9
11 12 13 12 13 14 17 22 14 12 14 17 19 20 21 22 21 18 19 20 21 23 22 23 24 23 21 21 21 20 21 22 22 22 22 21 20 19 19 19 18 17 17 16 14 13 12 10 9
8 12 16 14 13 16 21 26 20 19 20 21 23 23 22 22 19 18 21 22 22 22 24 25 26 26 24 23 23 23 23 24 23 24 24 24 24 23 22 22 20 18 18 17 17 14 12 11 11
17 18 20 19 19 23 25 29 25 20 26 26 25 25 25 25 17 23 25 26 27 27 26 25 27 28 27 26 25 23 24 25 25 24 24 25 24 25 25 22 20 18 19 18 18 16 14 13 14
20 20 21 21 21 25 27 35 31 28 27 28 29 29 27 27 28 28 29 30 29 29 28 29 28 30 30 29 28 26 26 26 28 27 26 26 26 26 25 24 22 21 19 19 19 18 17 16 16
21 22 21 21 23 28 32 42 36 30 31 29 27 29 31 30 29 28 31 32 33 33 33 32 31 32 33 33 31 29 28 28 28 29 28 28 28 28 27 26 23 21 20 21 21 20 19 19 19
28 23 22 21 20 21 18 14 41 36 35 33 29 25 25 28 28 28 28 33 34 33 34 35 36 36 36 36 35 33 31 29 28 28 30 29 30 29 28 26 24 23 22 22 23 22 22 22 22
28 24 21 20 20 28 27 16 32 34 40 38 31 24 19 17 25 29 29 30 34 38 37 35 37 38 39 38 37 36 35 32 32 32 32 30 31 31 30 28 26 24 24 25 25 25 25 24 25
22 17 14 17 18 13 25 22 46 38 38 29 32 23 24 22 23 20 20 21 25 27 31 38 40 39 39 38 38 38 36 35 34 33 33 32 32 32 32 30 27 25 26 26 26 27 26 27 28
24 16 4 4 2 9 5 15 44 34 30 22 24 22 10 12 20 20 25 29 30 29 29 32 38 39 38 38 37 36 36 37 35 34 34 34 33 34 32 30 27 26 26 27 28 29 29 30 31
27 32 16 7 4 6 9 16 26 33 28 35 28 13 17 19 17 21 25 27 28 30 31 31 34 36 36 36 35 35 35 36 36 35 35 35 34 33 32 31 29 29 29 30 31 31 32 32 34
29 34 31 26 23 10 18 39 45 37 21 13 13 25 12 9 11 12 14 17 20 23 25 26 27 31 32 33 35 36 35 35 35 34 35 36 36 35 35 34 32 32 32 32 33 33 34 34 36
35 19 13 16 3 5 13 20 27 23 19 8 11 14 8 7 7 8 15 21 23 21 22 24 24 29 31 32 35 36 36 35 36 36 36 37 37 37 37 36 35 34 34 35 35 35 36 37 37
30 33 19 13 12 5 3 20 22 18 13 6 9 13 7 9 11 9 26 24 24 22 21 20 24 26 31 35 37 37 36 37 38 37 37 38 39 39 38 37 36 36 36 36 37 37 38 38 38
32 39 42 20 8 16 19 41 19 17 15 14 14 17 21 16 17 20 33 26 23 18 16 20 20 24 28 32 34 35 36 38 39 39 39 40 41 40 39 38 39 39 38 38 37 37 38 38 38